User: anonymous   Login
Location: Unspecified
(0.0000°N, 0.0000°E)
Time: 20:06:45
(UTC+00:00)
Language:

Explorer 11/Cluster Stage 4 - Orbit

View from above orbital plane
View from above orbital plane
View from above satellite
View from above satellite

Ground track
Ground track

The orbit data is extracted from the following two-line orbital elements,

1   107U 61013A   19258.49244143  .00000230  00000-0  12662-4 0  9991
2   107  28.7867 299.8413 0547435  94.8868 271.4399 14.08824072926823
Epoch (UTC): 15 September 2019 11:49:06
Eccentricity: 0.0547435
inclination: 28.7867°
perigee height: 467 km
apogee height: 1260 km
right ascension of ascending node: 299.8413°
argument of perigee: 94.8868°
revolutions per day: 14.08824072
mean anomaly at epoch: 271.4399°
orbit number at epoch: 92682

The dashed part of the orbit path shows where the satellite is in the earth's shadow,  

DLR